Voltar ao catálogo

YAOGAN-30 AF

AtivoMilitarVLEO
NORAD 49029·PAYLOAD·🇨🇳 China

Lançado Jul 19, 2021 de Xichang Satellite Launch Center

Loading…

Próximas Passagens (próximas 24 horas)

TLE

AtualizadoSource: Space-Track

Época: Sep 14, 2026, 15:04 UTC

1 49029U 21065D   26257.62834797  .00001728  00000-0  12788-3 0  9993
2 49029  34.9940  87.3484 0004547 323.9710  36.0691 15.03030708282121

Acompanhe YAOGAN-30 AF em tempo real com AllMySat

Download on the App Store